Regional Weather Roundup
Issued by NWS

Home | Current Version | Previous Version | Graphics & Text | Print | Product List | Glossary On
Versions: 1 2 3 4 5 6 7 8 9 10 11 12 13 14 15 16 17 18 19 20 21 22 23 24 25 26 27 28 29 30 31 32 33 34 35 36 37 38 39 40 41 42 43 44 45 46 47 48 49 50
982
ASUS43 KLOT 221259
RWRIL

ILLINOIS REGIONAL WEATHER ROUNDUP
NATIONAL WEATHER SERVICE CHICAGO/ROMEOVILLE IL
800 AM CDT SAT JUL 22 2017

NOTE: "FAIR" INDICATES FEW OR NO CLOUDS BELOW 12,000 FEET WITH NO
SIGNIFICANT WEATHER AND/OR OBSTRUCTIONS TO VISIBILITY.

* THESE STATIONS ARE NOT UNDER NWS QUALITY CONTROL. THEY ALSO MAY NOT
  REPORT WEATHER SUCH AS PRECIPITATION OR FOG.

ILZ001-002-007-009-015-016-024-221400-
NORTHWEST ILLINOIS

CITY           SKY/WX    TMP DP  RH WIND       PRES   REMARKS
MOLINE         NOT AVBL
$$

ILZ003-004-008-010-011-017-018-221400-
NORTH CENTRAL ILLINOIS

CITY           SKY/WX    TMP DP  RH WIND       PRES   REMARKS
ROCKFORD       NOT AVBL
$$

ILZ005-006-012>014-019>023-221400-
NORTHEAST ILLINOIS

CITY           SKY/WX    TMP DP  RH WIND       PRES   REMARKS
CHICAGO-OHARE  LGT RAIN  72  68  87 NE15      29.73F
CHICAGO-MIDWAY NOT AVBL
AURORA         NOT AVBL
WAUKEGAN       NOT AVBL
DUPAGE AIRPORT NOT AVBL
WHEELING       CLOUDY    72  71  97 SE9       29.76F
NORTHERLY ISL    N/A     71  67  87 S10         N/A
$$

LMZ740>746-221400-
SOUTHERN LAKE MICHIGAN

STATION/POSITION SKY/WX   TEMP    WIND        PRES    VSBY  WAVE
                          AIR SEA DIR/SP/G                  HT/PER
                          (F)     (DEG/KT/KT) (MB)    (MI)  (FT/S)
SOUTHERN BUOY              71 70  230/  8/ 10 1008.4R         3/ 5
WILMETTE HARBOR            72 72  110/  4/  8   N/A           1/ 3
HARRISON CRIB              74     190/ 10/ 17   N/A
BURNHAM HARBOR             72                   N/A
CALUMET HARBOR             71     230/  5/ 11 1009.3R
BURNS HARBOR               73     220/ 13/ 20 1009.8R
MICHIGAN CITY              72     220/ 12/ 14   N/A
MICHIGAN CITY 6N           74 74  280/ 14/ 17   N/A           3
ST. JOSEPH                 75 74  210/  8/ 12 1009.5R         4/ 5
$$

ILZ025>027-034>036-040-047-049-050-058-095>099-221400-
WEST-CENTRAL ILLINOIS

CITY           SKY/WX    TMP DP  RH WIND       PRES   REMARKS
$$

ILZ028>032-037-038-041>044-048-051>054-059>061-221400-
CENTRAL ILLINOIS

CITY           SKY/WX    TMP DP  RH WIND       PRES   REMARKS
BLOOMINGTON    RAIN      70  66  88 N5        29.97R
PEORIA         LGT RAIN  70  70 100 S7        29.89F
SPRINGFIELD    TSTM      72  70  94 N16G29    29.98R FOG
TAYLORVILLE    NOT AVBL
$$

ILZ033-039-045-046-055>057-062-063-221400-
EAST-CENTRAL ILLINOIS

CITY           SKY/WX    TMP DP  RH WIND       PRES   REMARKS
$$

ILZ079-100>102-221400-
SOUTHWEST ILLINOIS

CITY           SKY/WX    TMP DP  RH WIND       PRES   REMARKS
ALTON          MOSUNNY   84  75  74 SW6       29.89R HX  92
$$

ILZ064>066-069>071-074>076-080>082-084>086-088>090-092>094-221400-
SOUTH-CENTRAL ILLINOIS

CITY           SKY/WX    TMP DP  RH WIND       PRES   REMARKS
CARBONDALE     NOT AVBL
MARION         SUNNY     84  81  89 SW9       29.92R HX  98
$$

ILZ067-068-072-073-078-083-087-091-221400-
SOUTHEAST ILLINOIS

CITY           SKY/WX    TMP DP  RH WIND       PRES   REMARKS
$$

ABBREVIATIONS USED IN REMARKS
   TC - TEMPERATURE IN CELSIUS
  WCI - WIND CHILL INDEX
   HX - HEAT INDEX
  VSB - VISIBILITY
$$





USA.gov is the U.S. government's official web portal to all federal, state and local government web resources and services.